Simultaneous Nadir Overpasses (SNOs) Predictions

Prediction of SNOs between METOP-C and LANDSAT-8 Satellite Orbit:

Table of predicted SNOs for the next 14.0 days since TLE Epoch: 7/20/2019
Index Date (METOP-C) Time (METOP-C) Lat,Lon (METOP-C) SZA (METOP-C ) Date (LANDSAT-8) Time (LANDSAT-8) Lat,Lon (LANDSAT-8) SZA (LANDSAT-8 ) Distance(km) Time Diff (sec)
1 07/22/2019 05:21:06 81.13, 139.88 62.82 07/22/2019 05:21:35 81.13, 139.74 62.81 2.38 29
2 07/22/2019 06:11:45 -81.15, -52.27 117.11 07/22/2019 06:11:01 -81.15, -52.31 117.14 0.70 44
3 07/25/2019 00:55:27 81.14,-153.45 63.42 07/25/2019 00:55:49 81.14,-153.57 63.42 2.16 22
4 07/25/2019 01:46:06 -81.16, 14.39 116.51 07/25/2019 01:45:15 -81.16, 14.40 116.53 0.59 51
5 07/27/2019 20:29:50 81.14, -87.15 64.03 07/27/2019 20:30:05 81.14, -87.26 64.02 1.83 15
6 07/27/2019 21:20:29 -81.16, 80.68 115.91 07/27/2019 21:19:31 -81.16, 80.74 115.92 1.10 58
7 07/30/2019 16:04:12 81.15, -20.48 64.72 07/30/2019 16:04:20 81.15, -20.57 64.72 1.59 8
8 07/30/2019 16:54:52 -81.15, 146.97 115.26 07/30/2019 16:53:47 -81.15, 147.08 115.28 1.91 65
9 08/02/2019 10:48:41 -80.15,-138.15 116.88 08/02/2019 10:49:55 -79.76,-136.63 117.10 52.47 74
10 08/02/2019 11:38:34 81.14, 45.81 65.41 08/02/2019 11:38:35 81.14, 45.74 65.40 1.08 1




NCC Satellite Simultaneous Nadir Overpasses (SNOs) Prediction Service
